www.pogodaiklimat.ru

Погода и климат >> Архив погоды >> Боливия >> Санта-Роза


ПОГОДА в Санта-Розе

  • Прогноз погоды в Санта-Розе
  • Монитор погоды в Санта-Розе

АРХИВ ПОГОДЫ в Санта-Розе

Время (UTC), дата Ветер
(напр.,м/с)
 
Видим.   Явления Облачность Т
(С)
Тd
(С)
f
(%)
Тe
(С)
Тes
(С)
Комфортность P
(гПа)
Po
(гПа)
Тmin
(С)
Tmax
(С)
R
(мм)
R24
(мм)
S
(см)
21 17.08 СЗ 5 8000 м дым 8/0
[Ci]
+33.0 +16.6 38 +36 +37 очень
душно
1008.2 988.9 +34.6
12 18.08 штиль 0 5000 м дым ясно +21.4 +18.2 82 +26 +29 душно 1011.2 991.6 +19.0
15 18.08 СЗ 8 5000 м дым ясно +30.7 +19.1 50 +36 +39 очень
душно
1013.3 993.9
18 18.08 СЗ 8 5000 м дым 1/1 500 м
[Cu hum]
+34.5 +19.8 42 +40 +43 очень
душно
1011.3 998.9
21 18.08 СЗ 5 5000 м дым 3/3 500 м
[Cu med, cong]
+33.6 +20.9 47 +41 +41 опасность
перегрева
1008.8 989.5 +36.0
12 19.08 штиль 0 15 км 8/0 2000 м
[Ac trans]
+25.4 +23.4 89 +34 +36 очень
душно
1014.8 995.1 +22.8
15 19.08 штиль 0 5000 м дым {гроза} 9/4 500 м
[Cb cap Ac As]
+25.5 +22.3 82 +33 +38 очень
душно
1015.5 995.8
18 19.08 ЮВ 4 5000 м дым 5/3 500 м
[Cu med, cong Ac trans]
+28.4 +22.4 70 +37 +43 очень
душно
1013.3 993.9
21 19.08 ЮВ 4 5000 м дым 3/3 500 м
[Cu med, cong]
+29.4 +23.5 71 +40 +41 очень
душно
1011.5 991.8 +30.8
15 20.08 ЮВ 8 7000 м дым 8/0 2000 м
[Ac trans]
+24.5 +10.4 41 +26 +27 жарко 1018.8 999.0
18 20.08 ЮВ 8 7000 м дым 8/0 2000 м
[Ac trans]
+29.2 +13.2 37 +31 +32 жарко 1016.0 996.5
21 20.08 ЮВ 2 8000 м дым 4/0 2000 м
[Ac trans]
+29.2 +13.2 37 +31 +32 жарко 1014.2 994.8 +30.6
12 21.08 штиль 0 8000 м дым 4/0 2000 м
[Ac trans]
+19.0 +15.9 82 +20 +23 1019.0 999.2 +18.3
15 21.08 ЮВ 8 15 км дым ясно +27.4 +11.3 37 +28 +32 жарко 1021.0 1001.3
18 21.08 ЮВ 5 8000 м дым ясно +31.2 +11.4 30 +32 +39 жарко 1017.3 1000.5
21 21.08 ЮВ 3 8000 м дым ясно +30.4 +15.8 41 +33 +35 душно 1014.2 994.5 +32.6
12 22.08 штиль 0 8000 м дым ясно +19.0 +16.6 86 +20 +24 1016.0 996.2 +16.6
15 22.08 СЗ 3 5000 м дым ясно +26.8 +17.5 57 +31 +44 душно 1016.3 996.6
18 22.08 СЗ 2 5000 м дым ясно +34.0 +21.7 49 +42 +58 опасность
перегрева
1013.1 993.9
21 22.08 СЗ 2 5000 м дым ясно +34.0 +21.7 49 +42 +44 опасность
перегрева
1011.2 992.0 +34.7
12 23.08 ЮВ 3 6000 м дым ясно +21.0 +17.7 81 +26 +28 душно 1015.1 995.5 +10.6
15 23.08 ЮВ 8 6000 м дым ясно +27.7 +13.7 42 +30 +33 жарко 1018.0 998.5
18 23.08 ЮВ 5 5000 м дым ясно +31.2 +15.2 38 +34 +41 душно 1016.7 996.9
21 23.08 ЮВ 4 5000 м дым ясно +31.6 +17.4 43 +36 +37 очень
душно
1013.6 993.9 +32.8
12 24.08 штиль 0 15 км дым ясно +19.5 +17.9 90 +22 +25 комфорт 1016.0 996.3 +18.6
15 24.08 ЮВ 2 8000 м дым ясно +30.5 +17.3 45 +34 +50 очень
душно
1017.2 997.6

 

Местоположение метеостанции Санта-Роза (Боливия): широта -14.17 долгота -66.90 высота над уровнем моря 225 м.

В архиве по умолчанию представлена погода в Санта-Розе за последнюю неделю. Архивные данные за месяц целиком и за предыдущие месяцы, начиная с января 2011 года, Вы можете получить, выбрав интересующий диапазон дат из раскрывающегося списка и нажав кнопку "Ввод!".


*Определитесь, кто Вы:
робот инопланетянин человек

Внимание! Время в таблицах - всемирное. Для получения местного времени необходимо прибавить поправку, которая равна -4 ч.

Смотрите также архив погоды в соседних городах и на ближайших метеорологических станциях:

Погода в Рейесе (Боливия) (54 км)
Погода в Сан-Борхе (Боливия) (77 км)
Погода в Рурренабаке (Боливия) (78 км)
Погода в Сан Игнасио де Moксосе (Боливия) (162 км)
Погода в Санта-Ане (Боливия) (165 км)
Погода в Бауресе (Боливия) (165 км)
Погода в Тринидаде (Боливия) (226 км)
Погода в Сан-Рамоне (Боливия) (257 км)
Погода в Сан-Хоакине (Боливия) (257 км)
Погода в Овежуйо (Боливия) (289 км)

Пояснения к столбцам:

Ветер - указаны скорость ветра в м/с - средняя за 10 мин, порывы в срок и между сроками (в фигурных скобках) и направление, откуда дует ветер: С - северный, СВ - северо-восточный, В - восточный, ЮВ - юго-восточный, Ю - южный, ЮЗ - юго-западный, З - западный, СЗ - северо-западный.
Видимость - горизонтальная дальность видимости в метрах или километрах. При видимости от 1 до 10 км при отсутствии осадков обычно наблюдается дымка, при ухудшении видимости до 1 км и менее - туман. В сухую погоду видимость может ухудшаться дымом, пылью или мглою.
Явления - указаны атмосферные явления, наблюдавшиеся в срок или в последний час перед сроком; фигурными скобками обозначены явления, наблюдавшиеся между сроками (за 1-3 часа до срока); квадратными скобками обозначены град или гололедные отложения с указанием их диаметра в мм.
Облачность - указаны через наклонную черту общая и нижняя облачность в баллах и высота нижней границы облаков в метрах; квадратными скобками обозначены формы облаков: Ci - перистые, Cs - перисто-слоистые, Cc - перисто-кучевые, Ac - высококучевые, As - высокослоистые, Sc - слоисто-кучевые, Ns - слоисто-дождевые, Cu - кучевые, Cb - кучево-дождевые. Подробнее классификацию облаков см. в Атласе облаков (PDF).
T - Температура воздуха - температура, измеренная на высоте 2 м над землей.
Td - Температура точки росы - температура, при понижении до которой содержащийся в воздухе водяной пар достигнет насыщения.
f - Относительная влажность воздуха - влажноcть воздуха, измеренная на высоте 2 м над землей.
Te - Эффективная температура - температура, которую ощущает одетый по сезону человек в тени. Характеристика душности погоды. При расчете учитывается влияние влажности воздуха и скорости ветра на теплоощущения человека.
Tes - Эффективная температура на солнце - температура, которую ощущает человек, с поправкой на солнечный нагрев. Характеристика знойности погоды. Зависит от высоты солнца над горизонтом, облачности и скорости ветра. Ночью, в пасмурную погоду, а также при ветре 12 м/с и более поправка равна нулю.
P - Атмосферное давление - приведенное к уровню моря атмосферное давление.
Po - Атмосферное давление - измеренное на уровне метеостанции атмосферное давление.
Tmin - Минимальная температура - минимум температуры воздуха на высоте 2 м над землей.
Tmax - Максимальная температура - максимум температуры воздуха на высоте 2 м над землей.
R - Количество осадков - Количество выпавших осадков за период времени, мм. При наведении курсора мыши на число - период времени, за который выпало указанное количество осадков.
R24 - Количество осадков - Количество выпавших осадков за 24 часа, мм.
S - Снежный покров - Высота снежного покрова, см. При наведении курсора мыши на число - состояние снежного покрова и степень покрытия местности в баллах.